• In Deutschland
  • Länderverzeichnis
  • Für 7 Tage
  • Wassertemperatur
  • Satellitenkarten
  • Wetterkarte
  • Widgets
  • user-avatar
    Anmelden

    Stündliche Wetter Leinfelden-Echterdingen

    Heute, 17 Oktober, Dienstag

    Zeit Temperatur Niederschläge Wind Luftdruck Luftfeuchtigkeit
    00:00 +14°C° 0 mm 2 m/S 731 mmHg 74%
    01:00 +14°C° 0 mm 2 m/S 731 mmHg 71%
    02:00 +14°C° 0 mm 2 m/S 731 mmHg 70%
    03:00 +13°C° 0 mm 1 m/S 731 mmHg 70%
    04:00 +13°C° 0 mm 1 m/S 730 mmHg 70%
    05:00 +13°C° 0 mm 1 m/S 730 mmHg 69%
    06:00 +12°C° 0 mm 1 m/S 730 mmHg 69%
    07:00 +11°C° 0 mm 1 m/S 730 mmHg 64%
    08:00 +13°C° 0 mm 1 m/S 730 mmHg 60%
    09:00 +16°C° 0 mm 1 m/S 730 mmHg 56%
    10:00 +19°C° 0 mm 1 m/S 730 mmHg 51%
    11:00 +20°C° 0 mm 1 m/S 730 mmHg 48%
    12:00 +20°C° 0 mm 0 m/S 730 mmHg 45%
    13:00 +21°C° 0 mm 0 m/S 730 mmHg 42%
    14:00 +21°C° 0 mm 0 m/S 729 mmHg 46%
    15:00 +20°C° 0 mm 0 m/S 729 mmHg 50%
    16:00 +20°C° 0 mm 0 m/S 728 mmHg 55%
    17:00 +18°C° 0 mm 0 m/S 728 mmHg 59%
    18:00 +15°C° 0 mm 0 m/S 728 mmHg 64%
    19:00 +13°C° 0 mm 0 m/S 727 mmHg 69%
    20:00 +14°C° 0 mm 1 m/S 727 mmHg 70%
    21:00 +13°C° 0 mm 1 m/S 727 mmHg 71%
    22:00 +13°C° 0 mm 1 m/S 727 mmHg 73%
    23:00 +13°C° 0 mm 1 m/S 727 mmHg 72%

    Morgen, 18 Oktober, Mittwoch

    Zeit Temperatur Niederschläge Wind Luftdruck Luftfeuchtigkeit
    00:00 +12°C° 0 mm 1 m/S 727 mmHg 72%
    01:00 +12°C° 0 mm 1 m/S 727 mmHg 72%
    02:00 +12°C° 0 mm 1 m/S 726 mmHg 71%
    03:00 +12°C° 0 mm 1 m/S 726 mmHg 71%
    04:00 +12°C° 0 mm 1 m/S 726 mmHg 70%
    05:00 +11°C° 0 mm 1 m/S 726 mmHg 70%
    06:00 +11°C° 0 mm 1 m/S 725 mmHg 69%
    07:00 +11°C° 0 mm 1 m/S 725 mmHg 68%
    08:00 +13°C° 0 mm 1 m/S 725 mmHg 63%
    09:00 +15°C° 0 mm 1 m/S 725 mmHg 58%
    10:00 +19°C° 0 mm 1 m/S 725 mmHg 53%
    11:00 +20°C° 0 mm 1 m/S 725 mmHg 50%
    12:00 +21°C° 0 mm 1 m/S 725 mmHg 47%
    13:00 +22°C° 0 mm 1 m/S 725 mmHg 43%
    14:00 +22°C° 0 mm 1 m/S 725 mmHg 48%
    15:00 +21°C° 0 mm 1 m/S 724 mmHg 52%
    16:00 +21°C° 0 mm 1 m/S 724 mmHg 56%
    17:00 +19°C° 0 mm 1 m/S 724 mmHg 61%
    18:00 +15°C° 0 mm 1 m/S 724 mmHg 66%
    19:00 +13°C° 0 mm 1 m/S 724 mmHg 71%
    20:00 +13°C° 0 mm 1 m/S 724 mmHg 73%
    21:00 +13°C° 0 mm 1 m/S 724 mmHg 74%
    22:00 +12°C° 0 mm 1 m/S 724 mmHg 76%
    23:00 +12°C° 0 mm 1 m/S 724 mmHg 77%

    übermorgen, 19 Oktober, Donnerstag

    Zeit Temperatur Niederschläge Wind Luftdruck Luftfeuchtigkeit
    00:00 +12°C° 0 mm 1 m/S 724 mmHg 77%
    01:00 +11°C° 0 mm 1 m/S 724 mmHg 78%
    02:00 +11°C° 0 mm 1 m/S 724 mmHg 78%
    03:00 +11°C° 0 mm 1 m/S 724 mmHg 78%
    04:00 +11°C° 0 mm 1 m/S 724 mmHg 78%
    05:00 +10°C° 0 mm 1 m/S 723 mmHg 78%
    06:00 +10°C° 0 mm 1 m/S 723 mmHg 78%
    07:00 +10°C° 0 mm 1 m/S 723 mmHg 78%
    08:00 +12°C° 0 mm 1 m/S 724 mmHg 72%
    09:00 +14°C° 0 mm 1 m/S 724 mmHg 66%
    10:00 +17°C° 0 mm 2 m/S 724 mmHg 61%
    11:00 +19°C° 0 mm 1 m/S 724 mmHg 57%
    12:00 +20°C° 0 mm 1 m/S 724 mmHg 53%
    13:00 +21°C° 0 mm 1 m/S 724 mmHg 50%
    14:00 +21°C° 0 mm 1 m/S 724 mmHg 54%
    15:00 +20°C° 0 mm 1 m/S 724 mmHg 58%
    16:00 +18°C° 0 mm 0 m/S 723 mmHg 62%
    17:00 +18°C° 0 mm 1 m/S 723 mmHg 66%
    18:00 +16°C° 0 mm 1 m/S 723 mmHg 70%
    19:00 +14°C° 0 mm 1 m/S 724 mmHg 74%
    20:00 +14°C° 0 mm 1 m/S 724 mmHg 76%
    21:00 +13°C° 0 mm 1 m/S 724 mmHg 78%
    22:00 +13°C° 0 mm 1 m/S 724 mmHg 80%
    23:00 +12°C° 0 mm 1 m/S 724 mmHg 80%

    20 Oktober, Freitag

    Zeit Temperatur Niederschläge Wind Luftdruck Luftfeuchtigkeit
    00:00 +12°C° 0 mm 1 m/S 724 mmHg 80%
    01:00 +12°C° 0 mm 1 m/S 724 mmHg 80%
    02:00 +12°C° 0 mm 1 m/S 724 mmHg 78%
    03:00 +12°C° 0 mm 1 m/S 724 mmHg 77%
    04:00 +11°C° 0 mm 1 m/S 724 mmHg 76%
    05:00 +10°C° 0 mm 2 m/S 724 mmHg 75%
    06:00 +10°C° 0 mm 2 m/S 724 mmHg 73%
    07:00 +10°C° 0 mm 2 m/S 725 mmHg 72%
    08:00 +13°C° 0 mm 2 m/S 725 mmHg 67%
    09:00 +15°C° 0 mm 2 m/S 726 mmHg 63%
    10:00 +17°C° 0 mm 2 m/S 726 mmHg 58%
    11:00 +18°C° 0 mm 2 m/S 726 mmHg 55%
    12:00 +20°C° 0 mm 3 m/S 726 mmHg 53%
    13:00 +21°C° 0 mm 3 m/S 726 mmHg 50%
    14:00 +20°C° 0 mm 3 m/S 726 mmHg 54%
    15:00 +20°C° 0 mm 2 m/S 726 mmHg 58%
    16:00 +21°C° 0 mm 1 m/S 725 mmHg 62%
    17:00 +19°C° 0 mm 1 m/S 725 mmHg 66%
    18:00 +16°C° 0 mm 1 m/S 725 mmHg 71%
    19:00 +14°C° 0 mm 1 m/S 726 mmHg 75%
    20:00 +14°C° 0 mm 1 m/S 726 mmHg 76%
    21:00 +14°C° 0 mm 2 m/S 726 mmHg 76%
    22:00 +13°C° 0 mm 2 m/S 726 mmHg 76%
    23:00 +13°C° 0 mm 2 m/S 726 mmHg 75%

    21 Oktober, Samstag

    Zeit Temperatur Niederschläge Wind Luftdruck Luftfeuchtigkeit
    00:00 +13°C° 0 mm 2 m/S 726 mmHg 75%
    01:00 +13°C° 0 mm 2 m/S 725 mmHg 74%
    02:00 +12°C° 0 mm 2 m/S 725 mmHg 74%
    03:00 +12°C° 0 mm 2 m/S 725 mmHg 74%
    04:00 +12°C° 0 mm 2 m/S 725 mmHg 74%
    05:00 +12°C° 0 mm 2 m/S 725 mmHg 75%
    06:00 +12°C° 0 mm 2 m/S 725 mmHg 75%
    07:00 +12°C° 0 mm 2 m/S 725 mmHg 75%
    08:00 +14°C° 0 mm 2 m/S 725 mmHg 70%
    09:00 +16°C° 0 mm 3 m/S 725 mmHg 64%
    10:00 +18°C° 0 mm 3 m/S 725 mmHg 58%
    11:00 +18°C° 0,1 mm 4 m/S 725 mmHg 59%
    12:00 +19°C° 0,1 mm 4 m/S 725 mmHg 60%
    13:00 +19°C° 0,1 mm 5 m/S 725 mmHg 61%
    14:00 +18°C° 0,3 mm 4 m/S 725 mmHg 69%
    15:00 +15°C° 0,3 mm 4 m/S 725 mmHg 78%
    16:00 +14°C° 0,3 mm 3 m/S 725 mmHg 86%
    17:00 +13°C° 0,4 mm 3 m/S 726 mmHg 88%
    18:00 +14°C° 0,4 mm 2 m/S 726 mmHg 90%
    19:00 +14°C° 0,4 mm 2 m/S 727 mmHg 93%
    20:00 +13°C° 0,6 mm 2 m/S 727 mmHg 93%
    21:00 +13°C° 0,6 mm 2 m/S 727 mmHg 93%
    22:00 +13°C° 0,6 mm 1 m/S 727 mmHg 93%
    23:00 +12°C° 0,6 mm 2 m/S 727 mmHg 92%

    22 Oktober, Sonntag

    Zeit Temperatur Niederschläge Wind Luftdruck Luftfeuchtigkeit
    00:00 +12°C° 0,6 mm 2 m/S 727 mmHg 92%
    01:00 +12°C° 0,6 mm 2 m/S 727 mmHg 92%
    02:00 +10°C° 0,5 mm 3 m/S 727 mmHg 92%
    03:00 +10°C° 0,5 mm 3 m/S 727 mmHg 91%
    04:00 +10°C° 0,5 mm 3 m/S 727 mmHg 91%
    05:00 +9°C° 0,3 mm 3 m/S 727 mmHg 91%
    06:00 +9°C° 0,3 mm 3 m/S 727 mmHg 92%
    07:00 +8°C° 0,3 mm 2 m/S 727 mmHg 92%
    08:00 +9°C° 0,2 mm 3 m/S 728 mmHg 88%
    09:00 +9°C° 0,2 mm 3 m/S 728 mmHg 84%
    10:00 +10°C° 0,2 mm 4 m/S 728 mmHg 80%
    11:00 +10°C° 0,2 mm 4 m/S 728 mmHg 77%
    12:00 +10°C° 0,2 mm 4 m/S 729 mmHg 74%
    13:00 +10°C° 0,2 mm 4 m/S 729 mmHg 71%
    14:00 +10°C° 0,1 mm 4 m/S 729 mmHg 71%
    15:00 +10°C° 0,1 mm 3 m/S 729 mmHg 71%
    16:00 +10°C° 0,1 mm 3 m/S 729 mmHg 71%
    17:00 +9°C° 0 mm 3 m/S 729 mmHg 75%
    18:00 +8°C° 0 mm 3 m/S 730 mmHg 79%
    19:00 +7°C° 0 mm 3 m/S 730 mmHg 83%
    20:00 +5°C° 0 mm 3 m/S 730 mmHg 83%
    21:00 +5°C° 0 mm 3 m/S 731 mmHg 84%
    22:00 +5°C° 0 mm 3 m/S 731 mmHg 85%
    23:00 +5°C° 0 mm 3 m/S 731 mmHg 85%
    Mehr zeigen